| time (UTC) | temp F | wind direction | speed MPH | gust MPH | rain 1hr in | rain 24hr in | rain mn in | humidity % | barometer mb |
| 20260831054505 | 72 | 166 | 2.0 | 7.0 | 0.00 | 0.00 | 0.00 | 94 | 1006.1 |
| 20260831054004 | 72 | 245 | 3.0 | 8.0 | 0.00 | 0.00 | 0.00 | 94 | 1006.1 |
| 20260831053503 | 72 | 174 | 3.0 | 8.0 | 0.00 | 0.00 | 0.00 | 94 | 1006.1 |
| 20260831053003 | 72 | 252 | 3.0 | 7.0 | 0.00 | 0.00 | 0.00 | 94 | 1006.2 |
| 20260831052502 | 72 | 253 | 2.0 | 7.0 | 0.00 | 0.00 | 0.00 | 93 | 1006.2 |
| 20260831052002 | 72 | 238 | 1.0 | 7.0 | 0.00 | 0.00 | 0.00 | 93 | 1006.3 |
| 20260831051601 | 72 | 218 | 2.0 | 7.0 | 0.00 | 0.00 | 0.00 | 93 | 1006.5 |
| 20260831051159 | 73 | 295 | 2.0 | 6.0 | 0.00 | 0.00 | 0.00 | 93 | 1006.5 |
| 20260831050558 | 73 | 238 | 1.0 | 7.0 | 0.00 | 0.00 | 0.00 | 92 | 1006.5 |
| 20260831050508 | 73 | 255 | 1.0 | 7.0 | 0.00 | 0.00 | 0.00 | 92 | 1006.5 |
| 20260831050122 | 73 | 270 | 1.0 | 7.0 | 0.00 | 0.00 | 0.00 | 92 | 1006.6 |
| 20260831045557 | 73 | 240 | 1.0 | 9.0 | 0.00 | 0.00 | 0.00 | 92 | 1006.7 |
| 20260831045058 | 73 | 243 | 2.0 | 9.0 | 0.00 | 0.00 | 0.00 | 92 | 1006.8 |
| 20260831044604 | 73 | 210 | 3.0 | 6.0 | 0.00 | 0.00 | 0.00 | 92 | 1006.9 |
| 20260831044056 | 73 | 224 | 1.0 | 7.0 | 0.00 | 0.00 | 0.00 | 91 | 1007.1 |
| 20260831043556 | 73 | 176 | 2.0 | 7.0 | 0.00 | 0.00 | 0.00 | 91 | 1007.2 |
| 20260831043056 | 73 | 190 | 2.0 | 7.0 | 0.00 | 0.00 | 0.00 | 91 | 1007.2 |
| 20260831042555 | 74 | 298 | 1.0 | 6.0 | 0.00 | 0.00 | 0.00 | 91 | 1007.3 |
| 20260831032049 | 75 | 182 | 3.0 | 10.0 | 0.00 | 0.00 | 0.00 | 88 | 1007.0 |
| 20260831031549 | 75 | 165 | 3.0 | 9.0 | 0.00 | 0.00 | 0.00 | 88 | 1007.0 |
| 20260831025043 | 76 | 132 | 2.0 | 8.0 | 0.00 | 0.00 | 0.00 | 87 | 1006.8 |
| 20260831024538 | 76 | 214 | 3.0 | 9.0 | 0.00 | 0.00 | 0.00 | 86 | 1006.7 |
| 20260831024030 | 76 | 156 | 3.0 | 9.0 | 0.00 | 0.00 | 0.00 | 86 | 1006.6 |
| 20260831023530 | 76 | 250 | 1.0 | 8.0 | 0.00 | 0.00 | 0.00 | 86 | 1006.6 |
| 20260831023032 | 76 | 127 | 2.0 | 8.0 | 0.00 | 0.00 | 0.00 | 86 | 1006.6 |
| 20260831022529 | 76 | 231 | 1.0 | 5.0 | 0.00 | 0.00 | 0.00 | 85 | 1006.6 |
| 20260831022029 | 77 | 165 | 2.0 | 7.0 | 0.00 | 0.00 | 0.00 | 86 | 1006.7 |
| 20260831021538 | 77 | 180 | 2.0 | 7.0 | 0.00 | 0.00 | 0.00 | 86 | 1006.6 |
| 20260831021029 | 77 | 153 | 1.0 | 6.0 | 0.00 | 0.00 | 0.00 | 86 | 1006.8 |
| 20260831020533 | 77 | 228 | 2.0 | 6.0 | 0.00 | 0.00 | 0.00 | 86 | 1006.8 |
| 20260831020032 | 77 | 152 | 1.0 | 6.0 | 0.00 | 0.00 | 0.00 | 87 | 1006.7 |
| 20260831015532 | 77 | 183 | 1.0 | 6.0 | 0.00 | 0.00 | 0.00 | 87 | 1006.8 |
| 20260831015028 | 77 | 236 | 0.0 | 6.0 | 0.00 | 0.00 | 0.00 | 87 | 1006.7 |
| 20260831014528 | 77 | 143 | 1.0 | 6.0 | 0.00 | 0.00 | 0.00 | 87 | 1006.7 |
| 20260831014030 | 78 | 214 | 0.0 | 4.0 | 0.00 | 0.00 | 0.00 | 86 | 1006.7 |
| 20260831013528 | 78 | 166 | 0.0 | 4.0 | 0.00 | 0.00 | 0.00 | 86 | 1006.6 |
| 20260831013028 | 78 | 109 | 0.0 | 4.0 | 0.00 | 0.00 | 0.00 | 85 | 1006.6 |
| 20260831012528 | 78 | 194 | 0.0 | 3.0 | 0.00 | 0.00 | 0.00 | 85 | 1006.6 |
| 20260831012027 | 78 | 95 | 0.0 | 3.0 | 0.00 | 0.00 | 0.00 | 85 | 1006.5 |
| 20260831011542 | 79 | 90 | 0.0 | 3.0 | 0.00 | 0.00 | 0.00 | 84 | 1006.4 |
| 20260831011027 | 79 | 100 | 0.0 | 1.0 | 0.00 | 0.00 | 0.00 | 83 | 1006.4 |
| 20260831010527 | 79 | 82 | 0.0 | 3.0 | 0.00 | 0.00 | 0.00 | 83 | 1006.5 |
| 20260831010029 | 79 | 85 | 0.0 | 4.0 | 0.00 | 0.00 | 0.00 | 83 | 1006.4 |
| 20260831005527 | 79 | 72 | 0.0 | 4.0 | 0.00 | 0.00 | 0.00 | 82 | 1006.3 |
| 20260831005027 | 80 | 86 | 1.0 | 4.0 | 0.00 | 0.00 | 0.00 | 82 | 1006.3 |
| 20260831004526 | 80 | 103 | 1.0 | 5.0 | 0.00 | 0.00 | 0.00 | 82 | 1006.3 |
| 20260831004026 | 80 | 100 | 1.0 | 5.0 | 0.00 | 0.00 | 0.00 | 81 | 1006.4 |
| 20260831001020 | 81 | 98 | 2.0 | 5.0 | 0.00 | 0.00 | 0.00 | 78 | 1006.4 |
| 20260831000519 | 82 | 83 | 2.0 | 7.0 | 0.00 | 0.00 | 0.00 | 78 | 1006.4 |
| 20260831000019 | 82 | 94 | 2.0 | 7.0 | 0.00 | 0.00 | 0.00 | 77 | 1006.3 |
| 20260830235518 | 82 | 93 | 3.0 | 7.0 | 0.00 | 0.00 | 0.00 | 77 | 1006.3 |
| 20260830235018 | 82 | 99 | 1.0 | 6.0 | 0.00 | 0.00 | 0.00 | 77 | 1006.3 |
| 20260830234518 | 82 | 106 | 2.0 | 6.0 | 0.00 | 0.00 | 0.00 | 77 | 1006.3 |
| 20260830234021 | 82 | 93 | 2.0 | 8.0 | 0.00 | 0.00 | 0.00 | 76 | 1006.3 |
| 20260830233517 | 82 | 114 | 3.0 | 10.0 | 0.00 | 0.00 | 0.00 | 76 | 1006.2 |
| 20260830233022 | 82 | 93 | 3.0 | 7.0 | 0.00 | 0.00 | 0.00 | 76 | 1006.1 |
| 20260830232516 | 83 | 95 | 1.0 | 12.0 | 0.00 | 0.00 | 0.00 | 75 | 1006.2 |
| 20260830232015 | 83 | 250 | 3.0 | 12.0 | 0.00 | 0.00 | 0.00 | 75 | 1006.2 |
| 20260830231516 | 83 | 84 | 2.0 | 9.0 | 0.00 | 0.00 | 0.00 | 75 | 1006.2 |
| 20260830231018 | 83 | 87 | 4.0 | 9.0 | 0.00 | 0.00 | 0.00 | 74 | 1006.4 |
| 20260830230515 | 83 | 96 | 1.0 | 7.0 | 0.00 | 0.00 | 0.00 | 76 | 1006.5 |
| 20260830230015 | 83 | 77 | 0.0 | 7.0 | 0.00 | 0.00 | 0.00 | 75 | 1006.4 |
| 20260830225515 | 83 | 72 | 0.0 | 8.0 | 0.00 | 0.00 | 0.00 | 76 | 1006.3 |
| 20260830225014 | 83 | 96 | 2.0 | 8.0 | 0.00 | 0.00 | 0.00 | 75 | 1006.2 |
| 20260830224518 | 83 | 86 | 2.0 | 7.0 | 0.00 | 0.00 | 0.00 | 73 | 1006.3 |
| 20260830224013 | 83 | 71 | 1.0 | 7.0 | 0.00 | 0.00 | 0.00 | 74 | 1006.3 |
| 20260830223513 | 83 | 124 | 2.0 | 6.0 | 0.00 | 0.00 | 0.00 | 74 | 1006.3 |
| 20260830223012 | 83 | 119 | 1.0 | 8.0 | 0.00 | 0.00 | 0.00 | 75 | 1006.2 |
| 20260830222511 | 83 | 316 | 2.0 | 8.0 | 0.00 | 0.00 | 0.00 | 75 | 1006.2 |
| 20260830222009 | 83 | 103 | 1.0 | 6.0 | 0.00 | 0.00 | 0.00 | 76 | 1006.3 |
| 20260830221509 | 83 | 104 | 1.0 | 8.0 | 0.00 | 0.00 | 0.00 | 76 | 1006.3 |
| 20260830221009 | 83 | 122 | 3.0 | 8.0 | 0.00 | 0.00 | 0.00 | 76 | 1006.3 |
| 20260830220508 | 83 | 132 | 2.0 | 7.0 | 0.00 | 0.00 | 0.00 | 76 | 1006.3 |
| 20260830220007 | 82 | 357 | 1.0 | 9.0 | 0.00 | 0.00 | 0.00 | 77 | 1006.4 |
| 20260830215507 | 82 | 153 | 3.0 | 9.0 | 0.00 | 0.00 | 0.00 | 76 | 1006.5 |
| 20260830215004 | 82 | 75 | 1.0 | 9.0 | 0.00 | 0.00 | 0.00 | 78 | 1006.6 |
| 20260830214504 | 82 | 86 | 2.0 | 13.0 | 0.00 | 0.00 | 0.00 | 78 | 1006.6 |
| 20260830214003 | 82 | 115 | 4.0 | 13.0 | 0.00 | 0.00 | 0.00 | 77 | 1006.7 |
| 20260830213503 | 82 | 47 | 4.0 | 7.0 | 0.00 | 0.00 | 0.00 | 77 | 1006.7 |
| 20260830213005 | 82 | 106 | 1.0 | 8.0 | 0.00 | 0.00 | 0.00 | 79 | 1006.6 |
| 20260830212500 | 81 | 98 | 2.0 | 11.0 | 0.00 | 0.00 | 0.00 | 79 | 1006.6 |
| 20260830212101 | 81 | 89 | 6.0 | 11.0 | 0.00 | 0.00 | 0.00 | 78 | 1006.7 |
| 20260830211603 | 81 | 79 | 1.0 | 10.0 | 0.00 | 0.00 | 0.00 | 79 | 1006.8 |
| 20260830211057 | 81 | 106 | 4.0 | 10.0 | 0.00 | 0.00 | 0.00 | 79 | 1006.8 |
| 20260830210558 | 81 | 93 | 3.0 | 9.0 | 0.00 | 0.00 | 0.00 | 81 | 1006.9 |
| 20260830210056 | 80 | 99 | 4.0 | 12.0 | 0.00 | 0.00 | 0.00 | 79 | 1007.0 |
| 20260830205556 | 81 | 86 | 4.0 | 12.0 | 0.00 | 0.00 | 0.00 | 80 | 1007.2 |
| 20260830205055 | 80 | 122 | 6.0 | 14.0 | 0.00 | 0.00 | 0.00 | 79 | 1007.1 |
| 20260830204555 | 80 | 79 | 6.0 | 14.0 | 0.00 | 0.00 | 0.00 | 79 | 1007.1 |
| 20260830204055 | 81 | 93 | 3.0 | 11.0 | 0.00 | 0.00 | 0.00 | 79 | 1007.3 |
| 20260830203553 | 81 | 117 | 6.0 | 12.0 | 0.00 | 0.00 | 0.00 | 80 | 1007.2 |
| 20260830203052 | 80 | 95 | 4.0 | 10.0 | 0.00 | 0.00 | 0.00 | 79 | 1007.2 |
| 20260830202554 | 80 | 115 | 3.0 | 8.0 | 0.00 | 0.00 | 0.00 | 81 | 1007.2 |
| 20260830202048 | 79 | 136 | 2.0 | 12.0 | 0.00 | 0.00 | 0.00 | 82 | 1007.0 |
| 20260830201549 | 79 | 123 | 5.0 | 12.0 | 0.00 | 0.00 | 0.00 | 81 | 1007.1 |
| 20260830201047 | 79 | 174 | 2.0 | 12.0 | 0.00 | 0.00 | 0.00 | 84 | 1007.3 |
| 20260830200546 | 78 | 105 | 7.0 | 12.0 | 0.00 | 0.00 | 0.00 | 82 | 1007.2 |
| 20260830200046 | 78 | 70 | 6.0 | 9.0 | 0.00 | 0.00 | 0.00 | 82 | 1007.1 |
| 20260830195548 | 78 | 107 | 4.0 | 10.0 | 0.00 | 0.00 | 0.00 | 82 | 1007.0 |
| 20260830195046 | 78 | 103 | 6.0 | 12.0 | 0.00 | 0.00 | 0.00 | 84 | 1007.0 |
| 20260830194557 | 77 | 104 | 8.0 | 13.0 | 0.00 | 0.00 | 0.00 | 83 | 1007.2 |
| 20260830194044 | 77 | 58 | 7.0 | 13.0 | 0.00 | 0.00 | 0.00 | 83 | 1007.1 |
| 20260830193543 | 78 | 99 | 7.0 | 13.0 | 0.00 | 0.00 | 0.00 | 83 | 1007.2 |
| 20260830193054 | 78 | 115 | 7.0 | 14.0 | 0.00 | 0.00 | 0.00 | 84 | 1007.2 |
| 20260830192540 | 77 | 126 | 7.0 | 14.0 | 0.00 | 0.00 | 0.00 | 85 | 1007.3 |
| 20260830192043 | 77 | 94 | 9.0 | 14.0 | 0.00 | 0.00 | 0.00 | 84 | 1007.4 |
| 20260830191539 | 77 | 98 | 6.0 | 13.0 | 0.00 | 0.00 | 0.00 | 85 | 1007.5 |
| 20260830191038 | 77 | 96 | 6.0 | 12.0 | 0.00 | 0.00 | 0.00 | 84 | 1007.5 |
| 20260830190538 | 77 | 103 | 8.0 | 13.0 | 0.00 | 0.00 | 0.00 | 84 | 1007.7 |
| 20260830190037 | 77 | 117 | 6.0 | 13.0 | 0.00 | 0.00 | 0.00 | 85 | 1007.9 |
| 20260830185537 | 77 | 82 | 6.0 | 12.0 | 0.00 | 0.00 | 0.00 | 85 | 1007.9 |
| 20260830185037 | 77 | 94 | 5.0 | 10.0 | 0.00 | 0.00 | 0.00 | 85 | 1007.9 |
| 20260830184536 | 76 | 115 | 4.0 | 10.0 | 0.00 | 0.00 | 0.00 | 87 | 1008.0 |
| 20260830184034 | 76 | 86 | 6.0 | 13.0 | 0.00 | 0.00 | 0.00 | 86 | 1008.3 |
| 20260830183537 | 76 | 155 | 7.0 | 13.0 | 0.00 | 0.00 | 0.00 | 86 | 1008.4 |
| 20260830183034 | 76 | 112 | 4.0 | 9.0 | 0.00 | 0.00 | 0.00 | 88 | 1008.5 |
| 20260830182532 | 75 | 132 | 1.0 | 7.0 | 0.00 | 0.00 | 0.00 | 89 | 1008.7 |
| 20260830182030 | 74 | 90 | 0.0 | 7.0 | 0.00 | 0.00 | 0.00 | 91 | 1008.8 |
| 20260830181529 | 73 | 113 | 2.0 | 8.0 | 0.00 | 0.00 | 0.00 | 90 | 1008.8 |
| 20260830181032 | 73 | 92 | 2.0 | 8.0 | 0.00 | 0.00 | 0.00 | 90 | 1008.9 |
| 20260830180525 | 73 | 75 | 3.0 | 9.0 | 0.00 | 0.00 | 0.00 | 90 | 1009.0 |
| 20260830180025 | 73 | 110 | 4.0 | 10.0 | 0.00 | 0.00 | 0.00 | 90 | 1008.7 |
| 20260830175523 | 73 | 77 | 4.0 | 10.0 | 0.00 | 0.00 | 0.00 | 90 | 1008.7 |
| 20260830175022 | 73 | 132 | 4.0 | 12.0 | 0.00 | 0.00 | 0.00 | 90 | 1008.6 |
| 20260830174522 | 73 | 91 | 4.0 | 12.0 | 0.00 | 0.00 | 0.00 | 91 | 1008.6 |
| 20260830174018 | 72 | 86 | 5.0 | 9.0 | 0.00 | 0.00 | 0.00 | 91 | 1008.7 |
| 20260830173516 | 72 | 121 | 4.0 | 8.0 | 0.00 | 0.00 | 0.00 | 92 | 1008.6 |
| 20260830173015 | 72 | 113 | 1.0 | 7.0 | 0.00 | 0.00 | 0.00 | 93 | 1008.6 |
| 20260830172515 | 71 | 97 | 3.0 | 8.0 | 0.00 | 0.00 | 0.00 | 93 | 1008.7 |
| 20260830172018 | 71 | 89 | 4.0 | 8.0 | 0.00 | 0.00 | 0.00 | 93 | 1008.7 |
| 20260830171513 | 71 | 115 | 4.0 | 8.0 | 0.00 | 0.00 | 0.00 | 93 | 1008.7 |
| 20260830171012 | 71 | 117 | 3.0 | 7.0 | 0.00 | 0.00 | 0.00 | 93 | 1008.8 |
| 20260830170513 | 71 | 84 | 3.0 | 6.0 | 0.00 | 0.00 | 0.00 | 93 | 1008.9 |
| 20260830170015 | 71 | 111 | 4.0 | 8.0 | 0.00 | 0.00 | 0.00 | 93 | 1008.9 |
| 20260830165511 | 71 | 103 | 4.0 | 13.0 | 0.00 | 0.00 | 0.00 | 93 | 1008.9 |
| 20260830165014 | 70 | 110 | 5.0 | 13.0 | 0.00 | 0.00 | 0.00 | 93 | 1008.8 |
| 20260830164510 | 70 | 67 | 6.0 | 14.0 | 0.00 | 0.00 | 0.00 | 93 | 1008.8 |
| 20260830164010 | 70 | 111 | 4.0 | 10.0 | 0.00 | 0.00 | 0.00 | 93 | 1008.7 |
| 20260830163510 | 70 | 81 | 6.0 | 10.0 | 0.00 | 0.00 | 0.00 | 93 | 1008.7 |
| 20260830163009 | 70 | 89 | 6.0 | 10.0 | 0.00 | 0.00 | 0.00 | 93 | 1008.6 |
| 20260830162514 | 70 | 117 | 5.0 | 9.0 | 0.00 | 0.00 | 0.00 | 94 | 1008.5 |
| 20260830162012 | 70 | 65 | 6.0 | 9.0 | 0.00 | 0.00 | 0.00 | 93 | 1008.4 |
| 20260830161507 | 70 | 117 | 5.0 | 9.0 | 0.00 | 0.00 | 0.00 | 94 | 1008.4 |
| 20260830161007 | 70 | 90 | 7.0 | 10.0 | 0.00 | 0.00 | 0.00 | 94 | 1008.5 |
| 20260830160507 | 70 | 84 | 7.0 | 10.0 | 0.00 | 0.00 | 0.00 | 94 | 1008.5 |
| 20260830160006 | 70 | 140 | 6.0 | 10.0 | 0.00 | 0.00 | 0.00 | 94 | 1008.5 |
| 20260830155506 | 70 | 98 | 5.0 | 13.0 | 0.00 | 0.00 | 0.00 | 94 | 1008.5 |
| 20260830155005 | 70 | 69 | 6.0 | 13.0 | 0.00 | 0.00 | 0.00 | 95 | 1008.2 |
| 20260830154504 | 69 | 117 | 6.0 | 9.0 | 0.00 | 0.00 | 0.00 | 95 | 1008.3 |
| 20260830154003 | 69 | 85 | 4.0 | 9.0 | 0.00 | 0.00 | 0.00 | 96 | 1008.3 |
| 20260830153501 | 69 | 98 | 5.0 | 9.0 | 0.00 | 0.00 | 0.00 | 96 | 1008.5 |
| 20260830153001 | 69 | 90 | 5.0 | 9.0 | 0.00 | 0.00 | 0.00 | 96 | 1008.3 |
| 20260830152503 | 69 | 20 | 7.0 | 9.0 | 0.00 | 0.00 | 0.00 | 97 | 1008.4 |
| 20260830152100 | 68 | 101 | 5.0 | 11.0 | 0.00 | 0.00 | 0.00 | 97 | 1008.4 |
| 20260830151610 | 68 | 79 | 4.0 | 11.0 | 0.00 | 0.00 | 0.00 | 96 | 1008.4 |
| 20260830151059 | 68 | 76 | 4.0 | 8.0 | 0.00 | 0.00 | 0.00 | 97 | 1008.6 |
| 20260830150601 | 68 | 86 | 4.0 | 8.0 | 0.00 | 0.00 | 0.00 | 97 | 1008.6 |
| 20260830150104 | 68 | 147 | 4.0 | 10.0 | 0.00 | 0.00 | 0.00 | 97 | 1008.6 |
| 20260830145600 | 68 | 79 | 5.0 | 10.0 | 0.00 | 0.00 | 0.00 | 97 | 1008.5 |
| 20260830145058 | 68 | 58 | 4.0 | 8.0 | 0.00 | 0.00 | 0.00 | 98 | 1008.3 |
| 20260830144556 | 67 | 64 | 5.0 | 8.0 | 0.00 | 0.00 | 0.00 | 98 | 1008.3 |
| 20260830144055 | 67 | 61 | 5.0 | 8.0 | 0.00 | 0.00 | 0.00 | 98 | 1008.4 |
| 20260830143555 | 67 | 82 | 3.0 | 8.0 | 0.00 | 0.00 | 0.00 | 99 | 1008.7 |
| 20260830143058 | 67 | 110 | 4.0 | 9.0 | 0.00 | 0.00 | 0.00 | 99 | 1008.8 |
| 20260830142555 | 67 | 67 | 3.0 | 9.0 | 0.00 | 0.00 | 0.00 | 99 | 1008.7 |
| 20260830142058 | 66 | 81 | 5.0 | 8.0 | 0.00 | 0.00 | 0.00 | 99 | 1008.5 |
| 20260830141555 | 66 | 81 | 5.0 | 7.0 | 0.00 | 0.00 | 0.00 | 99 | 1008.6 |
| 20260830141108 | 66 | 118 | 4.0 | 8.0 | 0.00 | 0.00 | 0.00 | 99 | 1008.7 |
| 20260830140553 | 66 | 101 | 3.0 | 6.0 | 0.00 | 0.00 | 0.00 | 100 | 1008.9 |
| 20260830140053 | 66 | 92 | 0.0 | 5.0 | 0.00 | 0.00 | 0.00 | 100 | 1009.0 |
| 20260830140023 | 66 | 113 | 1.0 | 5.0 | 0.00 | 0.00 | 0.00 | 100 | 1009.0 |
| 20260830135555 | 66 | 132 | 1.0 | 5.0 | 0.00 | 0.00 | 0.00 | 100 | 1008.9 |
| 20260830135053 | 66 | 121 | 3.0 | 8.0 | 0.00 | 0.00 | 0.00 | 100 | 1008.8 |
| 20260830134552 | 66 | 103 | 3.0 | 10.0 | 0.00 | 0.00 | 0.00 | 100 | 1008.8 |
| 20260830134055 | 66 | 94 | 3.0 | 10.0 | 0.00 | 0.00 | 0.00 | 100 | 1008.7 |
| 20260830133551 | 66 | 77 | 3.0 | 8.0 | 0.00 | 0.00 | 0.00 | 100 | 1008.6 |
| 20260830133056 | 66 | 87 | 4.0 | 7.0 | 0.00 | 0.00 | 0.00 | 100 | 1008.6 |
| 20260830132550 | 65 | 107 | 4.0 | 7.0 | 0.00 | 0.00 | 0.00 | 100 | 1008.7 |
| 20260830132054 | 65 | 81 | 3.0 | 8.0 | 0.00 | 0.00 | 0.00 | 100 | 1008.6 |
| 20260830131554 | 65 | 92 | 3.0 | 6.0 | 0.00 | 0.00 | 0.00 | 100 | 1008.6 |
| 20260830131052 | 65 | 87 | 4.0 | 6.0 | 0.00 | 0.00 | 0.00 | 100 | 1008.6 |
| 20260830130549 | 65 | 40 | 3.0 | 7.0 | 0.00 | 0.00 | 0.00 | 100 | 1008.6 |
| 20260830130057 | 65 | 98 | 4.0 | 7.0 | 0.00 | 0.00 | 0.00 | 100 | 1008.4 |
| 20260830130022 | 65 | 68 | 4.0 | 7.0 | 0.00 | 0.00 | 0.00 | 100 | 1008.4 |
| 20260830125549 | 65 | 106 | 4.0 | 8.0 | 0.00 | 0.00 | 0.00 | 100 | 1008.4 |
| 20260830125052 | 65 | 73 | 4.0 | 8.0 | 0.00 | 0.00 | 0.00 | 100 | 1008.2 |
| 20260830124046 | 65 | 163 | 3.0 | 7.0 | 0.00 | 0.00 | 0.00 | 100 | 1008.6 |
| 20260830123544 | 65 | 111 | 4.0 | 6.0 | 0.00 | 0.00 | 0.00 | 100 | 1008.5 |
| 20260830123043 | 65 | 110 | 3.0 | 7.0 | 0.00 | 0.00 | 0.00 | 100 | 1008.4 |
| 20260830122545 | 65 | 81 | 5.0 | 7.0 | 0.00 | 0.00 | 0.00 | 100 | 1008.1 |
| 20260830122042 | 65 | 66 | 4.0 | 6.0 | 0.00 | 0.00 | 0.00 | 100 | 1008.1 |
| 20260830121541 | 65 | 110 | 4.0 | 7.0 | 0.00 | 0.00 | 0.00 | 100 | 1008.1 |
| 20260830121044 | 65 | 85 | 4.0 | 7.0 | 0.00 | 0.00 | 0.00 | 100 | 1008.1 |
| 20260830120539 | 65 | 71 | 4.0 | 6.0 | 0.00 | 0.00 | 0.00 | 100 | 1008.1 |
| 20260830120044 | 65 | 96 | 3.0 | 6.0 | 0.00 | 0.00 | 0.00 | 100 | 1008.2 |
| 20260830115538 | 65 | 81 | 2.0 | 6.0 | 0.00 | 0.05 | 0.00 | 100 | 1008.5 |
| 20260830115038 | 65 | 77 | 1.0 | 2.0 | 0.00 | 0.05 | 0.00 | 100 | 1008.5 |
| 20260830114548 | 65 | 117 | 0.0 | 4.0 | 0.00 | 0.05 | 0.00 | 100 | 1008.5 |
| 20260830114036 | 65 | 81 | 0.0 | 6.0 | 0.00 | 0.05 | 0.00 | 100 | 1008.1 |
| 20260830113534 | 65 | 88 | 3.0 | 6.0 | 0.00 | 0.05 | 0.00 | 100 | 1007.6 |
| 20260830113034 | 65 | 77 | 4.0 | 7.0 | 0.00 | 0.05 | 0.00 | 100 | 1007.5 |
| 20260830112533 | 65 | 84 | 4.0 | 8.0 | 0.00 | 0.05 | 0.00 | 100 | 1007.7 |
| 20260830112033 | 65 | 87 | 3.0 | 7.0 | 0.00 | 0.05 | 0.00 | 100 | 1007.9 |
| 20260830111532 | 65 | 94 | 2.0 | 7.0 | 0.00 | 0.05 | 0.00 | 100 | 1007.8 |
| 20260830111032 | 65 | 83 | 2.0 | 5.0 | 0.00 | 0.05 | 0.00 | 100 | 1007.8 |
| 20260830110531 | 65 | 138 | 3.0 | 5.0 | 0.00 | 0.05 | 0.00 | 100 | 1007.9 |
| 20260830110033 | 65 | 70 | 3.0 | 5.0 | 0.00 | 0.05 | 0.00 | 100 | 1008.1 |
| 20260830105530 | 65 | 96 | 1.0 | 4.0 | 0.00 | 0.17 | 0.00 | 100 | 1008.2 |
| 20260830105030 | 65 | 81 | 1.0 | 4.0 | 0.00 | 0.17 | 0.00 | 100 | 1008.5 |
| 20260830104630 | 65 | 114 | 0.0 | 3.0 | 0.00 | 0.17 | 0.00 | 100 | 1008.5 |
| 20260830104029 | 65 | 73 | 0.0 | 5.0 | 0.00 | 0.17 | 0.00 | 100 | 1008.6 |
| 20260830103529 | 65 | 107 | 2.0 | 5.0 | 0.00 | 0.17 | 0.00 | 100 | 1008.2 |
| 20260830103028 | 65 | 89 | 2.0 | 3.0 | 0.00 | 0.17 | 0.00 | 100 | 1008.3 |
| 20260830102531 | 65 | 92 | 2.0 | 3.0 | 0.00 | 0.17 | 0.00 | 100 | 1008.3 |
| 20260830102028 | 65 | 68 | 1.0 | 4.0 | 0.00 | 0.17 | 0.00 | 100 | 1008.3 |
| 20260830101526 | 65 | 56 | 2.0 | 4.0 | 0.00 | 0.17 | 0.00 | 100 | 1008.3 |
| 20260830101027 | 65 | 81 | 1.0 | 4.0 | 0.00 | 0.17 | 0.00 | 100 | 1008.3 |
| 20260830100527 | 65 | 105 | 2.0 | 4.0 | 0.00 | 0.17 | 0.00 | 100 | 1008.3 |
| 20260830100031 | 65 | 71 | 0.0 | 4.0 | 0.00 | 0.22 | 0.00 | 100 | 1008.4 |
| 20260830095527 | 65 | 79 | 1.0 | 3.0 | 0.00 | 0.22 | 0.00 | 100 | 1008.3 |
| 20260830095027 | 65 | 88 | 1.0 | 3.0 | 0.00 | 0.22 | 0.00 | 100 | 1008.2 |
| 20260830094526 | 65 | 101 | 0.0 | 3.0 | 0.00 | 0.22 | 0.00 | 100 | 1008.3 |
| 20260830094025 | 65 | 120 | 1.0 | 3.0 | 0.00 | 0.22 | 0.00 | 100 | 1008.2 |
| 20260830093525 | 65 | 96 | 1.0 | 2.0 | 0.00 | 0.22 | 0.00 | 100 | 1008.3 |
| 20260830093027 | 65 | 104 | 0.0 | 3.0 | 0.00 | 0.22 | 0.00 | 100 | 1008.2 |
| 20260830092525 | 65 | 65 | 1.0 | 3.0 | 0.00 | 0.22 | 0.00 | 100 | 1008.2 |
| 20260830092028 | 65 | 91 | 1.0 | 3.0 | 0.00 | 0.22 | 0.00 | 100 | 1007.9 |
| 20260830091535 | 65 | 82 | 0.0 | 5.0 | 0.00 | 0.22 | 0.00 | 100 | 1007.8 |
| 20260830091024 | 65 | 94 | 2.0 | 5.0 | 0.00 | 0.22 | 0.00 | 100 | 1007.7 |
| 20260830090524 | 65 | 86 | 4.0 | 6.0 | 0.00 | 0.22 | 0.00 | 100 | 1007.7 |
| 20260830090024 | 65 | 117 | 3.0 | 6.0 | 0.00 | 0.23 | 0.00 | 100 | 1007.7 |
| 20260830085525 | 65 | 70 | 2.0 | 4.0 | 0.00 | 0.23 | 0.00 | 100 | 1007.8 |
| 20260830085022 | 65 | 94 | 1.0 | 4.0 | 0.00 | 0.23 | 0.00 | 100 | 1008.1 |
| 20260830084537 | 65 | 98 | 1.0 | 5.0 | 0.00 | 0.23 | 0.00 | 100 | 1008.1 |
| 20260830084021 | 65 | 117 | 2.0 | 5.0 | 0.00 | 0.23 | 0.00 | 100 | 1008.1 |
| 20260830083523 | 65 | 75 | 3.0 | 6.0 | 0.00 | 0.23 | 0.00 | 100 | 1008.1 |
| 20260830083021 | 65 | 91 | 3.0 | 5.0 | 0.00 | 0.23 | 0.00 | 100 | 1008.1 |
| 20260830082519 | 65 | 105 | 3.0 | 5.0 | 0.00 | 0.23 | 0.00 | 100 | 1008.1 |
| 20260830082019 | 65 | 83 | 2.0 | 4.0 | 0.00 | 0.23 | 0.00 | 100 | 1008.3 |
| 20260830081519 | 65 | 88 | 2.0 | 4.0 | 0.00 | 0.23 | 0.00 | 100 | 1008.2 |
| 20260830081021 | 65 | 108 | 2.0 | 5.0 | 0.00 | 0.23 | 0.00 | 100 | 1008.2 |
| 20260830080520 | 65 | 107 | 2.0 | 5.0 | 0.00 | 0.23 | 0.00 | 100 | 1008.2 |
| 20260830080019 | 65 | 79 | 2.0 | 4.0 | 0.00 | 0.23 | 0.00 | 99 | 1008.1 |
| 20260830075516 | 65 | 77 | 2.0 | 4.0 | 0.00 | 0.23 | 0.00 | 99 | 1008.2 |
| 20260830075015 | 65 | 92 | 2.0 | 5.0 | 0.00 | 0.23 | 0.00 | 99 | 1008.3 |
| 20260830074516 | 65 | 82 | 3.0 | 5.0 | 0.00 | 0.23 | 0.00 | 99 | 1008.4 |
| 20260830074014 | 66 | 72 | 2.0 | 5.0 | 0.00 | 0.23 | 0.00 | 99 | 1008.6 |
| 20260830073513 | 66 | 81 | 1.0 | 4.0 | 0.00 | 0.23 | 0.00 | 99 | 1008.5 |
| 20260830073013 | 66 | 91 | 1.0 | 4.0 | 0.00 | 0.23 | 0.00 | 99 | 1008.6 |
| 20260830072513 | 66 | 72 | 2.0 | 6.0 | 0.00 | 0.23 | 0.00 | 99 | 1008.6 |
| 20260830072013 | 66 | 75 | 2.0 | 4.0 | 0.00 | 0.23 | 0.00 | 99 | 1008.5 |
| 20260830071512 | 66 | 94 | 2.0 | 4.0 | 0.00 | 0.23 | 0.00 | 99 | 1008.5 |
| 20260830071011 | 66 | 78 | 2.0 | 3.0 | 0.00 | 0.23 | 0.00 | 99 | 1008.6 |
| 20260830070511 | 66 | 91 | 2.0 | 3.0 | 0.00 | 0.23 | 0.00 | 99 | 1008.7 |
| 20260830070010 | 66 | 90 | 0.0 | 3.0 | 0.00 | 0.23 | 0.00 | 99 | 1008.7 |
| 20260830065514 | 66 | 84 | 1.0 | 4.0 | 0.00 | 0.23 | 0.00 | 99 | 1008.8 |
| 20260830065010 | 66 | 87 | 0.0 | 5.0 | 0.00 | 0.23 | 0.00 | 99 | 1008.7 |
| 20260830064510 | 66 | 88 | 3.0 | 7.0 | 0.00 | 0.23 | 0.00 | 99 | 1008.5 |
| 20260830064010 | 66 | 95 | 3.0 | 7.0 | 0.00 | 0.23 | 0.00 | 99 | 1008.5 |
| 20260830063509 | 66 | 87 | 2.0 | 4.0 | 0.00 | 0.23 | 0.00 | 98 | 1008.7 |
| 20260830063008 | 66 | 88 | 2.0 | 5.0 | 0.00 | 0.23 | 0.00 | 98 | 1008.7 |
| 20260830062508 | 66 | 89 | 2.0 | 4.0 | 0.00 | 0.23 | 0.00 | 98 | 1008.7 |
| 20260830062010 | 66 | 103 | 2.0 | 4.0 | 0.00 | 0.23 | 0.00 | 98 | 1008.7 |
| 20260830061506 | 66 | 91 | 2.0 | 4.0 | 0.00 | 0.23 | 0.00 | 98 | 1008.7 |
| 20260830061005 | 67 | 91 | 3.0 | 5.0 | 0.00 | 0.23 | 0.00 | 98 | 1008.7 |
| 20260830060507 | 67 | 89 | 3.0 | 5.0 | 0.00 | 0.23 | 0.00 | 98 | 1008.7 |
| 20260830060004 | 67 | 102 | 3.0 | 6.0 | 0.00 | 0.23 | 0.00 | 98 | 1008.7 |
| 20260830055504 | 67 | 89 | 3.0 | 5.0 | 0.00 | 0.23 | 0.00 | 98 | 1008.8 |
| 20260830055003 | 67 | 114 | 3.0 | 4.0 | 0.00 | 0.23 | 0.00 | 98 | 1008.8 |